GFSNW_prec_precacc24_276.txt.gz
Total_Precipitation_Accumulation
0.27 0.37 0.49 0.64 0.80 1.32 2.07 2.03 1.70 0.58 0.57 1.35 0.90 0.21 0.02 0.00 0.00 0.00 0.00 0.00 0.00 0.00 0.01 0.00 0.00 0.00 0.00 0.00 0.00 0.00 0.00 0.00 0.00 0.00 0.00 0.00 0.00 0.00 0.00 0.00 0.00 0.00 0.01 0.00
0.23 0.29 0.41 0.70 0.87 1.11 1.81 2.02 1.37 1.45 0.87 0.91 0.37 0.07 0.01 0.00 0.00 0.00 0.00 0.00 0.00 0.00 0.01 0.02 0.01 0.01 0.00 0.00 0.00 0.01 0.00 0.00 0.04 0.04 0.02 0.00 0.00 0.00 0.00 0.00 0.00 0.00 0.01 0.00
0.23 0.35 0.35 0.54 0.90 1.10 1.21 1.63 1.67 2.30 1.96 0.66 0.07 0.05 0.02 0.00 0.00 0.00 0.00 0.00 0.00 0.01 0.01 0.00 0.00 0.03 0.02 0.00 0.00 0.00 0.00 0.00 0.01 0.07 0.02 0.00 0.00 0.00 0.00 0.00 0.01 0.00 0.00 0.00
0.36 0.39 0.48 0.43 0.71 1.35 1.74 1.52 1.50 1.20 1.11 0.61 0.12 0.02 0.01 0.00 0.01 0.00 0.00 0.00 0.00 0.00 0.01 0.02 0.01 0.02 0.02 0.00 0.00 0.00 0.00 0.00 0.01 0.01 0.00 0.00 0.00 0.00 0.00 0.00 0.00 0.01 0.00 0.00
0.45 0.47 0.54 0.52 0.60 1.28 2.39 1.73 0.85 0.54 0.24 0.12 0.10 0.11 0.06 0.01 0.00 0.00 0.01 0.00 0.00 0.00 0.00 0.01 0.01 0.03 0.09 0.02 0.01 0.00 0.00 0.03 0.01 0.01 0.00 0.00 0.00 0.00 0.00 0.00 0.00 0.00 0.00 0.00
0.45 0.50 0.49 0.60 0.61 1.31 2.13 1.95 0.71 0.21 0.28 0.18 0.18 0.17 0.03 0.00 0.00 0.01 0.01 0.06 0.02 0.00 0.00 0.00 0.00 0.00 0.01 0.00 0.00 0.00 0.00 0.01 0.03 0.02 0.00 0.00 0.00 0.00 0.00 0.00 0.00 0.00 0.00 0.00
0.47 0.52 0.58 0.63 0.59 0.82 1.12 0.99 0.74 0.48 0.38 0.31 0.14 0.05 0.02 0.01 0.00 0.01 0.02 0.06 0.08 0.02 0.00 0.00 0.00 0.00 0.00 0.00 0.00 0.00 0.00 0.00 0.05 0.03 0.03 0.00 0.00 0.00 0.00 0.00 0.00 0.00 0.00 0.00
0.53 0.60 0.60 0.75 0.73 0.77 0.90 0.55 0.42 0.60 0.51 0.22 0.09 0.04 0.03 0.08 0.09 0.07 0.01 0.02 0.01 0.01 0.02 0.02 0.02 0.01 0.01 0.00 0.00 0.00 0.00 0.01 0.03 0.01 0.01 0.00 0.00 0.00 0.00 0.00 0.00 0.00 0.00 0.00
0.56 0.55 0.65 0.61 0.79 0.73 0.97 0.73 0.36 0.33 0.36 0.28 0.08 0.05 0.05 0.17 0.37 0.41 0.12 0.05 0.02 0.01 0.04 0.05 0.06 0.02 0.00 0.00 0.00 0.00 0.00 0.00 0.01 0.00 0.00 0.00 0.00 0.00 0.00 0.00 0.00 0.00 0.00 0.00
0.62 0.55 0.50 0.60 0.73 0.66 0.66 0.94 0.47 0.45 0.36 0.21 0.20 0.14 0.06 0.14 0.27 0.35 0.22 0.09 0.06 0.05 0.06 0.07 0.02 0.00 0.00 0.00 0.01 0.00 0.00 0.00 0.01 0.01 0.01 0.00 0.00 0.00 0.00 0.00 0.00 0.00 0.00 0.00
0.80 0.68 0.53 0.48 0.62 0.75 0.60 0.65 0.62 0.37 0.41 0.22 0.22 0.27 0.14 0.10 0.14 0.19 0.21 0.16 0.09 0.08 0.10 0.10 0.06 0.01 0.00 0.00 0.00 0.00 0.00 0.00 0.00 0.01 0.04 0.02 0.00 0.00 0.00 0.00 0.00 0.00 0.00 0.00
0.94 0.80 0.68 0.66 0.57 0.58 0.71 0.46 0.53 0.45 0.32 0.22 0.13 0.25 0.26 0.30 0.13 0.07 0.09 0.09 0.06 0.03 0.04 0.02 0.02 0.01 0.00 0.00 0.00 0.00 0.00 0.00 0.00 0.00 0.00 0.00 0.00 0.00 0.00 0.00 0.00 0.00 0.00 0.00
0.80 0.89 0.81 0.89 0.67 0.55 0.57 0.34 0.29 0.40 0.51 0.22 0.19 0.18 0.21 0.22 0.28 0.24 0.11 0.16 0.08 0.05 0.04 0.03 0.04 0.03 0.00 0.00 0.00 0.00 0.00 0.00 0.00 0.00 0.00 0.00 0.00 0.00 0.00 0.00 0.00 0.00 0.00 0.00
0.74 0.82 0.96 1.07 0.87 0.71 0.53 0.32 0.11 0.11 0.27 0.34 0.26 0.13 0.10 0.14 0.10 0.21 0.15 0.11 0.06 0.07 0.08 0.09 0.06 0.02 0.00 0.00 0.00 0.00 0.00 0.00 0.00 0.00 0.00 0.00 0.00 0.00 0.00 0.00 0.00 0.00 0.00 0.00
0.75 0.78 0.89 1.23 1.21 0.95 0.50 0.31 0.17 0.03 0.08 0.22 0.17 0.14 0.09 0.08 0.06 0.05 0.10 0.05 0.12 0.12 0.12 0.11 0.04 0.01 0.01 0.00 0.00 0.00 0.00 0.00 0.00 0.00 0.00 0.00 0.00 0.00 0.00 0.00 0.00 0.00 0.00 0.00
0.74 0.76 0.87 1.30 1.57 1.25 0.76 0.68 0.63 0.17 0.03 0.12 0.28 0.26 0.17 0.10 0.12 0.10 0.08 0.07 0.04 0.12 0.23 0.17 0.09 0.03 0.02 0.02 0.01 0.00 0.00 0.00 0.00 0.00 0.00 0.00 0.00 0.00 0.00 0.00 0.00 0.00 0.00 0.00
0.71 0.77 0.99 1.32 1.53 1.31 1.13 0.88 0.59 0.40 0.04 0.11 0.27 0.30 0.25 0.15 0.14 0.18 0.13 0.12 0.05 0.04 0.11 0.15 0.11 0.06 0.12 0.13 0.01 0.00 0.00 0.00 0.00 0.00 0.00 0.00 0.00 0.00 0.00 0.00 0.00 0.00 0.00 0.00
0.76 0.88 1.11 1.30 1.66 1.56 0.98 0.41 0.11 0.11 0.12 0.09 0.22 0.35 0.34 0.27 0.17 0.14 0.16 0.13 0.10 0.08 0.07 0.01 0.01 0.02 0.09 0.08 0.00 0.00 0.00 0.00 0.00 0.00 0.00 0.00 0.00 0.00 0.00 0.00 0.00 0.00 0.00 0.00
1.00 1.31 1.74 2.46 2.47 2.15 1.29 0.57 0.36 0.13 0.17 0.14 0.13 0.11 0.17 0.10 0.08 0.05 0.05 0.05 0.06 0.03 0.03 0.01 0.00 0.00 0.01 0.00 0.00 0.00 0.00 0.00 0.00 0.00 0.00 0.00 0.00 0.00 0.00 0.00 0.00 0.00 0.00 0.00
1.45 2.16 2.98 3.48 2.31 1.02 0.83 1.21 1.07 0.77 0.41 0.15 0.03 0.01 0.01 0.01 0.02 0.06 0.10 0.11 0.05 0.02 0.00 0.00 0.00 0.00 0.00 0.00 0.00 0.00 0.00 0.00 0.00 0.00 0.00 0.00 0.00 0.00 0.00 0.00 0.00 0.00 0.00 0.00
1.74 2.88 2.46 2.00 1.36 1.12 1.55 1.75 1.27 0.89 0.55 0.18 0.01 0.00 0.00 0.00 0.00 0.02 0.03 0.11 0.13 0.06 0.00 0.00 0.00 0.00 0.00 0.00 0.00 0.00 0.00 0.00 0.00 0.00 0.00 0.00 0.00 0.00 0.00 0.00 0.00 0.00 0.00 0.00
1.32 1.52 1.44 1.50 1.37 1.78 2.11 1.34 0.79 0.32 0.16 0.03 0.00 0.00 0.00 0.00 0.00 0.01 0.02 0.02 0.06 0.04 0.01 0.02 0.00 0.00 0.00 0.00 0.00 0.00 0.00 0.00 0.00 0.00 0.00 0.00 0.00 0.00 0.00 0.00 0.00 0.00 0.00 0.00
0.42 0.77 1.34 1.35 1.58 1.49 1.10 0.75 0.39 0.10 0.00 0.00 0.00 0.01 0.02 0.04 0.04 0.02 0.02 0.03 0.02 0.00 0.02 0.01 0.00 0.00 0.00 0.00 0.00 0.00 0.00 0.00 0.00 0.00 0.00 0.00 0.00 0.00 0.00 0.00 0.00 0.00 0.00 0.00
0.83 1.28 1.35 1.06 0.92 0.41 0.12 0.03 0.01 0.00 0.00 0.00 0.00 0.00 0.01 0.01 0.03 0.04 0.04 0.02 0.01 0.00 0.00 0.00 0.00 0.00 0.00 0.00 0.00 0.00 0.00 0.00 0.00 0.00 0.00 0.00 0.00 0.00 0.00 0.00 0.00 0.00 0.00 0.00
0.63 0.51 0.48 0.26 0.16 0.01 0.00 0.00 0.00 0.00 0.00 0.00 0.01 0.02 0.02 0.02 0.04 0.04 0.04 0.06 0.02 0.00 0.00 0.00 0.00 0.00 0.00 0.00 0.00 0.00 0.00 0.00 0.00 0.00 0.00 0.00 0.00 0.00 0.00 0.00 0.00 0.00 0.00 0.00
0.28 0.22 0.19 0.03 0.01 0.01 0.00 0.01 0.00 0.00 0.00 0.05 0.11 0.09 0.11 0.06 0.04 0.06 0.03 0.01 0.00 0.00 0.00 0.00 0.00 0.00 0.00 0.00 0.00 0.00 0.00 0.00 0.00 0.00 0.00 0.00 0.00 0.00 0.00 0.00 0.00 0.00 0.00 0.00
0.40 0.16 0.04 0.01 0.00 0.01 0.01 0.01 0.00 0.00 0.06 0.06 0.06 0.07 0.06 0.04 0.03 0.01 0.00 0.00 0.00 0.00 0.00 0.00 0.00 0.00 0.00 0.00 0.00 0.00 0.00 0.00 0.00 0.00 0.00 0.00 0.00 0.00 0.00 0.00 0.00 0.00 0.00 0.00

GFSNW_prec_precacc24_279.txt.gz
Total_Precipitation_Accumulation
0.28 0.38 0.51 0.66 0.84 1.46 2.38 2.57 2.44 0.91 0.70 1.80 1.33 0.50 0.05 0.00 0.00 0.00 0.00 0.00 0.00 0.00 0.01 0.00 0.00 0.00 0.00 0.00 0.00 0.00 0.00 0.00 0.00 0.00 0.00 0.00 0.00 0.00 0.00 0.00 0.00 0.00 0.00 0.00
0.24 0.30 0.44 0.74 0.92 1.27 2.21 2.71 2.03 1.97 1.10 1.54 0.87 0.24 0.01 0.00 0.00 0.00 0.00 0.00 0.00 0.00 0.01 0.02 0.01 0.00 0.00 0.00 0.00 0.00 0.00 0.00 0.06 0.05 0.02 0.00 0.00 0.00 0.00 0.00 0.00 0.00 0.01 0.00
0.24 0.36 0.39 0.62 0.99 1.23 1.72 2.38 2.43 3.19 2.59 1.11 0.40 0.16 0.04 0.00 0.00 0.00 0.00 0.00 0.00 0.00 0.02 0.02 0.01 0.06 0.01 0.00 0.00 0.00 0.00 0.00 0.02 0.09 0.05 0.00 0.00 0.00 0.00 0.00 0.01 0.00 0.00 0.00
0.37 0.40 0.50 0.50 0.85 1.53 2.33 2.35 2.35 1.89 1.82 1.09 0.51 0.11 0.03 0.01 0.01 0.01 0.00 0.00 0.00 0.00 0.01 0.04 0.08 0.05 0.02 0.00 0.00 0.00 0.00 0.00 0.01 0.01 0.02 0.01 0.01 0.00 0.00 0.00 0.00 0.01 0.00 0.01
0.45 0.47 0.56 0.57 0.76 1.68 3.16 2.51 1.59 1.05 0.52 0.27 0.27 0.27 0.14 0.02 0.00 0.00 0.01 0.00 0.00 0.00 0.00 0.01 0.04 0.10 0.09 0.01 0.00 0.00 0.00 0.03 0.02 0.02 0.00 0.00 0.01 0.00 0.00 0.00 0.00 0.00 0.00 0.00
0.46 0.51 0.51 0.64 0.75 1.84 2.93 2.72 1.30 0.55 0.54 0.34 0.32 0.32 0.11 0.01 0.00 0.01 0.01 0.06 0.02 0.00 0.00 0.00 0.00 0.00 0.03 0.02 0.00 0.00 0.00 0.01 0.04 0.05 0.02 0.00 0.00 0.00 0.00 0.00 0.00 0.00 0.00 0.00
0.47 0.54 0.64 0.68 0.72 1.23 1.84 1.60 1.38 0.85 0.78 0.58 0.37 0.13 0.05 0.02 0.00 0.01 0.02 0.06 0.08 0.02 0.00 0.00 0.00 0.00 0.00 0.02 0.00 0.01 0.00 0.00 0.07 0.03 0.06 0.04 0.00 0.00 0.00 0.00 0.00 0.00 0.00 0.00
0.53 0.61 0.65 0.83 0.87 1.08 1.41 1.15 0.96 1.11 0.78 0.53 0.23 0.10 0.07 0.11 0.11 0.08 0.02 0.02 0.01 0.02 0.02 0.01 0.02 0.01 0.01 0.01 0.02 0.01 0.01 0.02 0.04 0.02 0.02 0.00 0.00 0.00 0.00 0.00 0.00 0.00 0.00 0.00
0.56 0.55 0.67 0.67 0.92 0.96 1.30 1.09 0.97 0.81 0.65 0.46 0.19 0.14 0.17 0.24 0.39 0.46 0.22 0.09 0.03 0.01 0.02 0.04 0.04 0.02 0.00 0.00 0.01 0.00 0.00 0.00 0.01 0.00 0.00 0.00 0.00 0.00 0.00 0.00 0.00 0.00 0.00 0.00
0.62 0.55 0.52 0.63 0.79 0.86 0.94 1.17 0.92 1.11 0.70 0.34 0.28 0.24 0.19 0.21 0.29 0.41 0.32 0.20 0.11 0.08 0.05 0.05 0.02 0.00 0.00 0.00 0.00 0.00 0.00 0.00 0.01 0.00 0.01 0.00 0.00 0.00 0.00 0.00 0.00 0.00 0.00 0.00
0.80 0.68 0.54 0.51 0.66 0.87 0.86 0.81 0.95 0.84 0.73 0.36 0.33 0.43 0.23 0.15 0.18 0.29 0.33 0.29 0.22 0.15 0.11 0.09 0.06 0.01 0.00 0.00 0.00 0.00 0.00 0.00 0.00 0.01 0.02 0.01 0.00 0.00 0.00 0.00 0.00 0.00 0.00 0.00
0.94 0.81 0.72 0.71 0.60 0.66 0.94 0.63 0.72 0.75 0.51 0.38 0.22 0.38 0.44 0.41 0.16 0.12 0.16 0.15 0.16 0.06 0.05 0.02 0.01 0.01 0.00 0.00 0.00 0.00 0.00 0.00 0.00 0.00 0.00 0.00 0.00 0.00 0.00 0.00 0.00 0.00 0.00 0.00
0.80 0.91 0.85 0.94 0.70 0.66 0.75 0.47 0.47 0.69 0.76 0.33 0.22 0.20 0.37 0.43 0.51 0.32 0.20 0.29 0.12 0.05 0.01 0.01 0.02 0.01 0.00 0.00 0.00 0.00 0.00 0.00 0.00 0.00 0.00 0.00 0.00 0.00 0.00 0.00 0.00 0.00 0.00 0.00
0.75 0.85 1.00 1.10 0.91 0.84 0.72 0.45 0.23 0.47 0.45 0.41 0.28 0.13 0.12 0.29 0.36 0.53 0.29 0.18 0.12 0.11 0.12 0.14 0.07 0.01 0.00 0.00 0.00 0.00 0.00 0.00 0.00 0.00 0.00 0.00 0.00 0.00 0.00 0.00 0.00 0.00 0.00 0.00
0.76 0.82 0.94 1.25 1.21 1.03 0.73 0.49 0.33 0.27 0.36 0.28 0.18 0.14 0.09 0.11 0.26 0.25 0.33 0.21 0.23 0.32 0.37 0.29 0.12 0.01 0.00 0.00 0.00 0.00 0.00 0.00 0.00 0.00 0.00 0.00 0.00 0.00 0.00 0.00 0.00 0.00 0.00 0.00
0.75 0.81 0.95 1.32 1.56 1.32 1.00 0.99 0.91 0.38 0.15 0.22 0.31 0.26 0.17 0.11 0.18 0.30 0.30 0.25 0.21 0.36 0.52 0.38 0.17 0.06 0.02 0.02 0.00 0.00 0.00 0.00 0.00 0.00 0.00 0.00 0.00 0.00 0.00 0.00 0.00 0.00 0.00 0.00
0.71 0.79 1.06 1.34 1.53 1.43 1.37 1.23 1.10 0.89 0.19 0.11 0.26 0.32 0.28 0.18 0.21 0.25 0.31 0.49 0.28 0.24 0.35 0.37 0.28 0.13 0.14 0.13 0.01 0.00 0.00 0.00 0.00 0.00 0.00 0.00 0.00 0.00 0.00 0.00 0.00 0.00 0.00 0.00
0.75 0.88 1.11 1.30 1.65 1.62 1.05 0.51 0.36 0.49 0.36 0.19 0.11 0.38 0.46 0.41 0.32 0.29 0.25 0.33 0.34 0.23 0.21 0.12 0.07 0.04 0.09 0.08 0.00 0.00 0.00 0.00 0.00 0.00 0.00 0.00 0.00 0.00 0.00 0.00 0.00 0.00 0.00 0.00
0.95 1.26 1.70 2.37 2.41 2.18 1.31 0.64 0.59 0.57 0.54 0.30 0.06 0.09 0.26 0.24 0.25 0.17 0.17 0.18 0.23 0.19 0.11 0.04 0.02 0.02 0.01 0.00 0.00 0.00 0.00 0.00 0.00 0.00 0.00 0.00 0.00 0.00 0.00 0.00 0.00 0.00 0.00 0.00
1.38 2.01 2.72 3.27 2.26 1.02 0.88 1.28 1.38 1.00 0.52 0.25 0.02 0.00 0.02 0.06 0.10 0.19 0.23 0.20 0.13 0.10 0.03 0.00 0.00 0.00 0.00 0.00 0.00 0.00 0.00 0.00 0.00 0.00 0.00 0.00 0.00 0.00 0.00 0.00 0.00 0.00 0.00 0.00
1.54 2.55 2.34 1.96 1.38 1.12 1.62 1.94 1.55 1.15 0.58 0.21 0.03 0.00 0.00 0.00 0.01 0.09 0.10 0.15 0.16 0.07 0.02 0.00 0.00 0.00 0.00 0.00 0.00 0.00 0.00 0.00 0.00 0.00 0.00 0.00 0.00 0.00 0.00 0.00 0.00 0.00 0.00 0.00
1.13 1.44 1.40 1.46 1.42 1.84 2.14 1.47 0.92 0.53 0.32 0.08 0.01 0.00 0.00 0.00 0.00 0.03 0.07 0.05 0.06 0.04 0.00 0.01 0.00 0.00 0.00 0.00 0.00 0.00 0.00 0.00 0.00 0.00 0.00 0.00 0.00 0.00 0.00 0.00 0.00 0.00 0.00 0.00
0.42 0.76 1.31 1.37 1.64 1.56 1.15 0.81 0.41 0.17 0.09 0.00 0.00 0.00 0.00 0.02 0.02 0.01 0.02 0.03 0.01 0.00 0.01 0.01 0.00 0.00 0.00 0.00 0.00 0.00 0.00 0.00 0.00 0.00 0.00 0.00 0.00 0.00 0.00 0.00 0.00 0.00 0.00 0.00
0.86 1.22 1.30 0.96 0.85 0.43 0.14 0.03 0.01 0.00 0.00 0.00 0.00 0.00 0.00 0.00 0.02 0.02 0.03 0.01 0.00 0.00 0.00 0.00 0.00 0.00 0.00 0.00 0.00 0.00 0.00 0.00 0.00 0.00 0.00 0.00 0.00 0.00 0.00 0.00 0.00 0.00 0.00 0.00
0.63 0.51 0.43 0.27 0.14 0.01 0.00 0.00 0.01 0.00 0.00 0.00 0.00 0.01 0.01 0.01 0.03 0.02 0.03 0.04 0.01 0.00 0.00 0.00 0.00 0.00 0.00 0.00 0.00 0.00 0.00 0.00 0.00 0.00 0.00 0.00 0.00 0.00 0.00 0.00 0.00 0.00 0.00 0.00
0.32 0.26 0.19 0.03 0.02 0.01 0.00 0.01 0.03 0.01 0.00 0.03 0.07 0.07 0.08 0.04 0.02 0.05 0.02 0.00 0.00 0.00 0.00 0.00 0.00 0.00 0.00 0.00 0.00 0.00 0.00 0.00 0.00 0.00 0.00 0.00 0.00 0.00 0.00 0.00 0.00 0.00 0.00 0.00
0.23 0.14 0.05 0.01 0.03 0.01 0.03 0.05 0.01 0.00 0.04 0.04 0.04 0.05 0.04 0.02 0.01 0.00 0.00 0.00 0.00 0.00 0.00 0.00 0.00 0.00 0.00 0.00 0.00 0.00 0.00 0.00 0.00 0.00 0.00 0.00 0.00 0.00 0.00 0.00 0.00 0.00 0.00 0.00

GFSNW_prec_precacc24_285.txt.gz
Total_Precipitation_Accumulation
0.26 0.35 0.45 0.56 0.76 1.34 2.29 2.52 2.38 0.88 0.76 2.10 1.87 0.86 0.18 0.03 0.00 0.00 0.00 0.00 0.00 0.00 0.01 0.00 0.00 0.00 0.00 0.00 0.00 0.00 0.00 0.00 0.00 0.00 0.00 0.00 0.00 0.00 0.00 0.00 0.00 0.00 0.00 0.01
0.22 0.28 0.40 0.67 0.86 1.24 2.18 2.77 2.04 1.90 1.19 1.84 1.22 0.66 0.21 0.05 0.01 0.00 0.00 0.00 0.00 0.00 0.01 0.02 0.01 0.00 0.00 0.00 0.00 0.00 0.00 0.00 0.06 0.04 0.01 0.00 0.00 0.00 0.00 0.00 0.00 0.01 0.01 0.00
0.23 0.35 0.37 0.61 0.96 1.25 1.83 2.62 2.58 3.18 2.64 1.34 0.68 0.43 0.33 0.15 0.03 0.00 0.00 0.01 0.00 0.00 0.02 0.02 0.01 0.06 0.01 0.00 0.00 0.00 0.00 0.00 0.02 0.09 0.05 0.00 0.00 0.00 0.00 0.00 0.01 0.00 0.01 0.00
0.37 0.40 0.51 0.51 0.86 1.57 2.53 2.77 2.63 2.00 1.96 1.24 0.82 0.48 0.26 0.16 0.11 0.03 0.01 0.02 0.01 0.00 0.01 0.04 0.08 0.05 0.02 0.00 0.00 0.00 0.00 0.00 0.01 0.01 0.02 0.01 0.01 0.00 0.00 0.00 0.00 0.01 0.01 0.02
0.45 0.48 0.57 0.58 0.78 1.77 3.45 2.97 1.79 1.16 0.71 0.46 0.47 0.66 0.63 0.24 0.09 0.07 0.05 0.02 0.01 0.01 0.00 0.01 0.04 0.12 0.09 0.01 0.00 0.01 0.00 0.03 0.02 0.02 0.00 0.00 0.01 0.00 0.01 0.00 0.00 0.00 0.00 0.00
0.46 0.52 0.52 0.65 0.78 1.99 3.29 3.02 1.44 0.66 0.77 0.57 0.65 0.50 0.42 0.41 0.17 0.07 0.05 0.09 0.04 0.01 0.01 0.00 0.00 0.03 0.06 0.03 0.01 0.03 0.04 0.03 0.05 0.05 0.02 0.01 0.01 0.00 0.00 0.00 0.00 0.00 0.00 0.00
0.47 0.55 0.65 0.69 0.76 1.36 2.08 1.72 1.62 1.32 1.13 0.78 0.62 0.32 0.13 0.13 0.16 0.17 0.09 0.09 0.13 0.05 0.01 0.03 0.03 0.02 0.04 0.07 0.03 0.04 0.02 0.02 0.08 0.04 0.07 0.07 0.00 0.00 0.00 0.00 0.00 0.00 0.00 0.00
0.51 0.60 0.66 0.85 0.89 1.19 1.68 1.31 1.24 1.75 1.15 0.67 0.47 0.26 0.14 0.16 0.19 0.21 0.18 0.10 0.04 0.04 0.09 0.20 0.21 0.12 0.12 0.07 0.08 0.06 0.04 0.05 0.08 0.05 0.03 0.01 0.00 0.00 0.00 0.00 0.00 0.00 0.00 0.00
0.52 0.52 0.66 0.67 0.93 1.02 1.43 1.21 1.26 1.43 1.21 0.60 0.28 0.36 0.41 0.43 0.58 0.60 0.37 0.30 0.23 0.18 0.21 0.38 0.56 0.37 0.10 0.06 0.06 0.09 0.09 0.07 0.05 0.04 0.02 0.00 0.00 0.00 0.00 0.00 0.00 0.00 0.00 0.00
0.57 0.50 0.50 0.63 0.80 0.89 1.02 1.22 1.12 1.65 1.30 0.51 0.37 0.46 0.49 0.62 0.60 0.66 0.49 0.37 0.38 0.64 0.77 0.57 0.43 0.16 0.06 0.04 0.01 0.03 0.09 0.10 0.15 0.09 0.03 0.00 0.00 0.00 0.00 0.00 0.00 0.00 0.00 0.00
0.72 0.61 0.51 0.50 0.66 0.91 0.96 0.88 1.07 1.23 1.15 0.54 0.47 0.64 0.48 0.57 0.65 0.70 0.56 0.55 0.53 0.63 0.92 0.83 0.39 0.21 0.08 0.06 0.04 0.00 0.01 0.04 0.08 0.10 0.05 0.00 0.00 0.00 0.00 0.00 0.00 0.00 0.00 0.00
0.82 0.72 0.67 0.66 0.59 0.68 1.05 0.78 0.83 1.05 1.05 0.78 0.48 0.67 0.71 0.66 0.51 0.50 0.47 0.38 0.50 0.37 0.48 0.46 0.31 0.11 0.10 0.06 0.06 0.05 0.01 0.00 0.00 0.01 0.00 0.00 0.00 0.00 0.00 0.00 0.00 0.00 0.00 0.00
0.57 0.77 0.76 0.86 0.68 0.68 0.85 0.57 0.57 1.15 1.39 0.67 0.53 0.57 0.76 0.74 0.81 0.88 0.91 0.69 0.26 0.23 0.17 0.11 0.07 0.05 0.02 0.04 0.03 0.05 0.02 0.00 0.00 0.00 0.00 0.00 0.00 0.00 0.00 0.00 0.00 0.00 0.00 0.00
0.37 0.63 0.86 1.03 0.89 0.87 0.84 0.60 0.35 0.90 1.07 0.79 0.47 0.27 0.54 0.78 0.81 0.95 0.99 0.97 0.59 0.26 0.25 0.30 0.17 0.05 0.01 0.00 0.00 0.01 0.01 0.00 0.00 0.00 0.00 0.00 0.00 0.00 0.00 0.00 0.00 0.00 0.00 0.00
0.30 0.47 0.76 1.16 1.20 1.07 0.82 0.58 0.42 0.49 0.92 0.72 0.32 0.26 0.31 0.57 0.86 0.83 0.84 0.74 0.97 0.89 0.75 0.63 0.37 0.08 0.02 0.02 0.01 0.00 0.00 0.00 0.00 0.00 0.00 0.00 0.00 0.00 0.00 0.00 0.00 0.00 0.00 0.00
0.31 0.43 0.72 1.23 1.58 1.37 1.13 1.08 0.95 0.57 0.69 0.78 0.53 0.37 0.35 0.41 0.57 1.02 1.26 1.04 0.88 0.96 1.19 0.91 0.41 0.16 0.06 0.06 0.02 0.00 0.00 0.00 0.00 0.00 0.00 0.00 0.00 0.00 0.00 0.00 0.00 0.00 0.00 0.00
0.37 0.50 0.93 1.35 1.61 1.53 1.52 1.32 1.24 1.27 0.76 0.58 0.54 0.43 0.37 0.45 0.59 0.72 0.96 1.36 1.25 1.08 0.98 0.90 0.60 0.31 0.25 0.19 0.04 0.00 0.00 0.00 0.00 0.00 0.00 0.00 0.00 0.00 0.00 0.00 0.00 0.00 0.00 0.00
0.51 0.66 1.00 1.26 1.68 1.68 1.10 0.53 0.49 0.93 1.06 0.66 0.47 0.62 0.59 0.69 0.63 0.73 0.57 0.85 1.10 1.06 0.88 0.44 0.30 0.30 0.36 0.29 0.04 0.00 0.00 0.00 0.00 0.00 0.00 0.00 0.00 0.00 0.00 0.00 0.00 0.00 0.00 0.00
0.75 1.09 1.57 2.18 2.33 2.14 1.28 0.65 0.75 1.02 1.20 0.91 0.40 0.25 0.47 0.40 0.44 0.42 0.40 0.41 0.54 0.63 0.56 0.35 0.17 0.24 0.23 0.09 0.01 0.03 0.01 0.00 0.00 0.00 0.00 0.00 0.00 0.00 0.00 0.00 0.00 0.00 0.00 0.00
1.21 1.79 2.43 2.88 2.11 1.01 0.87 1.31 1.62 1.52 1.00 0.71 0.25 0.10 0.15 0.15 0.14 0.26 0.33 0.34 0.38 0.32 0.30 0.30 0.20 0.12 0.01 0.00 0.00 0.01 0.03 0.01 0.01 0.03 0.01 0.00 0.00 0.00 0.00 0.00 0.00 0.00 0.00 0.00
1.29 2.13 2.13 1.88 1.37 1.17 1.71 2.08 1.85 1.46 0.90 0.46 0.13 0.05 0.11 0.04 0.06 0.13 0.14 0.18 0.26 0.23 0.14 0.08 0.07 0.03 0.00 0.00 0.00 0.00 0.00 0.01 0.01 0.01 0.00 0.00 0.00 0.00 0.00 0.00 0.00 0.00 0.00 0.00
1.00 1.34 1.28 1.32 1.35 1.87 2.28 1.63 1.14 0.71 0.50 0.18 0.05 0.01 0.05 0.03 0.05 0.12 0.15 0.13 0.11 0.11 0.06 0.04 0.00 0.00 0.00 0.00 0.00 0.00 0.00 0.00 0.00 0.00 0.00 0.00 0.00 0.00 0.00 0.00 0.00 0.00 0.00 0.00
0.44 0.64 1.01 1.22 1.55 1.61 1.19 0.89 0.50 0.25 0.14 0.02 0.05 0.10 0.04 0.05 0.14 0.11 0.08 0.10 0.08 0.03 0.05 0.03 0.00 0.00 0.00 0.00 0.00 0.00 0.00 0.00 0.00 0.00 0.00 0.00 0.00 0.00 0.00 0.00 0.00 0.00 0.00 0.00
0.80 1.10 1.03 0.90 0.77 0.41 0.15 0.04 0.02 0.00 0.00 0.00 0.04 0.11 0.03 0.04 0.07 0.07 0.03 0.05 0.03 0.03 0.01 0.00 0.00 0.00 0.00 0.00 0.00 0.00 0.00 0.00 0.00 0.00 0.00 0.00 0.00 0.00 0.00 0.00 0.00 0.00 0.00 0.00
0.67 0.61 0.36 0.24 0.13 0.01 0.01 0.00 0.01 0.01 0.01 0.08 0.06 0.05 0.02 0.01 0.03 0.04 0.03 0.04 0.01 0.00 0.00 0.00 0.00 0.00 0.00 0.00 0.00 0.00 0.00 0.00 0.00 0.00 0.00 0.00 0.00 0.00 0.00 0.00 0.00 0.00 0.00 0.00
0.35 0.36 0.17 0.02 0.02 0.01 0.01 0.01 0.04 0.02 0.04 0.18 0.17 0.04 0.06 0.03 0.00 0.02 0.01 0.00 0.00 0.00 0.00 0.00 0.00 0.00 0.00 0.00 0.00 0.00 0.00 0.00 0.00 0.00 0.00 0.00 0.00 0.00 0.00 0.00 0.00 0.00 0.00 0.00
0.23 0.14 0.05 0.01 0.03 0.02 0.05 0.09 0.18 0.12 0.07 0.14 0.14 0.02 0.03 0.00 0.00 0.00 0.00 0.00 0.00 0.00 0.00 0.00 0.00 0.00 0.00 0.00 0.00 0.00 0.00 0.00 0.00 0.00 0.00 0.00 0.00 0.00 0.00 0.00 0.00 0.00 0.00 0.00

GFSNW_prec_precacc24_288.txt.gz
Total_Precipitation_Accumulation
0.26 0.35 0.44 0.53 0.67 1.09 1.93 2.29 2.18 0.82 0.64 2.01 1.86 0.86 0.18 0.03 0.00 0.00 0.00 0.00 0.00 0.00 0.01 0.00 0.00 0.00 0.00 0.00 0.00 0.00 0.00 0.00 0.00 0.00 0.00 0.00 0.00 0.00 0.00 0.00 0.00 0.00 0.00 0.01
0.21 0.27 0.40 0.62 0.77 1.16 1.94 2.58 1.89 1.78 1.09 1.75 1.20 0.65 0.21 0.05 0.01 0.00 0.00 0.00 0.00 0.00 0.01 0.02 0.01 0.00 0.00 0.00 0.00 0.00 0.00 0.00 0.06 0.04 0.01 0.00 0.00 0.00 0.00 0.00 0.00 0.01 0.01 0.00
0.23 0.33 0.33 0.54 0.86 1.13 1.79 2.36 2.30 2.94 2.53 1.31 0.67 0.42 0.32 0.15 0.03 0.00 0.00 0.01 0.01 0.01 0.02 0.02 0.01 0.06 0.01 0.00 0.00 0.00 0.00 0.00 0.02 0.09 0.05 0.00 0.00 0.00 0.00 0.00 0.01 0.00 0.01 0.00
0.38 0.36 0.46 0.44 0.77 1.42 2.42 2.69 2.36 1.90 1.89 1.22 0.82 0.48 0.26 0.16 0.11 0.03 0.01 0.02 0.01 0.01 0.02 0.05 0.08 0.05 0.02 0.00 0.00 0.00 0.00 0.01 0.01 0.01 0.02 0.01 0.01 0.00 0.00 0.00 0.00 0.01 0.01 0.02
0.44 0.46 0.54 0.52 0.69 1.67 3.26 2.89 1.76 1.14 0.71 0.46 0.47 0.66 0.63 0.24 0.09 0.07 0.05 0.02 0.01 0.01 0.00 0.01 0.04 0.12 0.09 0.02 0.00 0.01 0.01 0.04 0.02 0.02 0.00 0.00 0.01 0.00 0.01 0.00 0.00 0.00 0.00 0.00
0.46 0.50 0.49 0.61 0.74 1.96 3.21 2.96 1.43 0.67 0.78 0.58 0.65 0.50 0.42 0.41 0.17 0.07 0.05 0.09 0.04 0.01 0.01 0.00 0.00 0.03 0.07 0.05 0.06 0.06 0.07 0.07 0.08 0.07 0.02 0.04 0.02 0.00 0.00 0.00 0.00 0.00 0.00 0.00
0.47 0.53 0.64 0.68 0.76 1.36 2.09 1.72 1.63 1.35 1.16 0.80 0.62 0.32 0.13 0.13 0.16 0.17 0.09 0.09 0.13 0.05 0.01 0.04 0.04 0.03 0.06 0.09 0.05 0.08 0.07 0.06 0.13 0.06 0.11 0.13 0.00 0.00 0.00 0.00 0.00 0.00 0.00 0.00
0.50 0.58 0.65 0.88 0.91 1.21 1.69 1.32 1.25 1.78 1.19 0.68 0.48 0.26 0.14 0.17 0.19 0.21 0.18 0.10 0.04 0.04 0.10 0.23 0.25 0.17 0.16 0.12 0.11 0.07 0.09 0.12 0.16 0.12 0.07 0.02 0.00 0.00 0.00 0.00 0.00 0.00 0.00 0.00
0.51 0.49 0.63 0.68 0.96 1.05 1.45 1.22 1.29 1.49 1.27 0.62 0.28 0.36 0.41 0.43 0.58 0.60 0.37 0.30 0.23 0.18 0.24 0.47 0.80 0.53 0.17 0.11 0.08 0.10 0.14 0.14 0.15 0.13 0.10 0.04 0.00 0.00 0.00 0.00 0.00 0.00 0.00 0.00
0.55 0.47 0.48 0.64 0.81 0.92 1.05 1.23 1.13 1.72 1.42 0.52 0.37 0.47 0.50 0.62 0.60 0.67 0.50 0.39 0.39 0.68 0.91 0.75 0.61 0.47 0.34 0.16 0.03 0.05 0.11 0.14 0.21 0.16 0.12 0.06 0.00 0.00 0.00 0.01 0.01 0.00 0.00 0.00
0.60 0.58 0.47 0.50 0.67 0.92 0.98 0.88 1.07 1.27 1.24 0.55 0.48 0.64 0.48 0.57 0.65 0.71 0.57 0.60 0.57 0.73 1.17 1.25 0.70 0.36 0.14 0.23 0.16 0.04 0.04 0.08 0.10 0.13 0.16 0.06 0.00 0.00 0.00 0.00 0.00 0.00 0.00 0.00
0.60 0.67 0.62 0.63 0.58 0.68 1.07 0.78 0.83 1.06 1.09 0.81 0.49 0.67 0.71 0.66 0.51 0.50 0.48 0.45 0.58 0.52 0.81 0.82 0.68 0.36 0.19 0.10 0.09 0.07 0.05 0.03 0.02 0.02 0.02 0.01 0.00 0.00 0.00 0.00 0.00 0.00 0.00 0.00
0.40 0.67 0.70 0.82 0.66 0.68 0.86 0.57 0.57 1.20 1.45 0.78 0.60 0.58 0.76 0.74 0.81 0.88 0.95 0.74 0.27 0.27 0.32 0.32 0.34 0.35 0.21 0.15 0.11 0.07 0.04 0.03 0.02 0.01 0.00 0.00 0.00 0.00 0.00 0.00 0.00 0.00 0.00 0.00
0.25 0.52 0.76 0.97 0.87 0.86 0.85 0.61 0.36 0.95 1.19 0.89 0.48 0.27 0.54 0.78 0.82 0.98 1.07 1.08 0.63 0.31 0.31 0.54 0.57 0.40 0.16 0.07 0.07 0.07 0.07 0.08 0.03 0.01 0.00 0.00 0.00 0.00 0.00 0.00 0.00 0.00 0.00 0.00
0.16 0.36 0.64 1.07 1.15 1.04 0.82 0.59 0.42 0.51 1.05 0.92 0.37 0.26 0.31 0.57 0.86 0.85 0.90 0.90 1.13 1.19 1.04 0.97 0.71 0.28 0.16 0.08 0.02 0.02 0.02 0.06 0.12 0.06 0.01 0.01 0.01 0.00 0.00 0.00 0.00 0.00 0.00 0.00
0.13 0.30 0.57 1.02 1.49 1.34 1.13 1.04 0.92 0.57 0.71 0.96 0.67 0.37 0.35 0.41 0.58 1.09 1.45 1.25 1.05 1.29 1.85 1.29 0.53 0.26 0.23 0.21 0.08 0.01 0.00 0.00 0.03 0.07 0.05 0.04 0.01 0.00 0.00 0.00 0.00 0.00 0.00 0.00
0.10 0.29 0.63 1.07 1.45 1.51 1.51 1.30 1.26 1.37 0.97 1.00 0.77 0.45 0.37 0.45 0.63 0.82 1.17 1.75 1.77 1.52 1.56 1.56 0.94 0.40 0.24 0.22 0.06 0.00 0.00 0.00 0.00 0.01 0.03 0.04 0.01 0.00 0.00 0.00 0.00 0.00 0.00 0.00
0.11 0.31 0.65 0.96 1.45 1.64 1.09 0.53 0.49 0.98 1.37 0.97 0.63 0.63 0.59 0.73 0.73 0.90 0.85 1.22 1.59 1.45 1.20 0.78 0.58 0.65 0.57 0.31 0.04 0.00 0.00 0.00 0.00 0.01 0.01 0.01 0.00 0.00 0.00 0.00 0.00 0.00 0.00 0.00
0.23 0.61 1.08 1.72 2.02 1.97 1.25 0.65 0.75 1.04 1.39 1.19 0.52 0.26 0.48 0.50 0.70 0.71 0.68 0.66 0.82 0.91 0.74 0.57 0.38 0.51 0.67 0.22 0.01 0.03 0.01 0.00 0.00 0.00 0.00 0.00 0.00 0.00 0.00 0.00 0.00 0.00 0.00 0.00
0.66 1.23 1.91 2.35 1.82 0.90 0.85 1.30 1.63 1.56 1.10 0.83 0.29 0.10 0.18 0.37 0.47 0.69 0.71 0.55 0.56 0.49 0.37 0.44 0.42 0.20 0.06 0.02 0.00 0.01 0.03 0.01 0.01 0.03 0.01 0.00 0.00 0.00 0.00 0.00 0.00 0.00 0.00 0.00
0.92 1.77 1.83 1.58 1.18 1.10 1.74 2.11 1.90 1.50 0.96 0.48 0.13 0.05 0.11 0.12 0.27 0.39 0.38 0.31 0.32 0.31 0.23 0.14 0.13 0.04 0.00 0.00 0.01 0.00 0.00 0.01 0.03 0.01 0.01 0.00 0.01 0.00 0.00 0.00 0.00 0.00 0.00 0.00
0.93 1.20 1.10 1.19 1.31 1.84 2.31 1.75 1.19 0.76 0.52 0.18 0.06 0.01 0.08 0.19 0.23 0.45 0.39 0.22 0.16 0.13 0.10 0.11 0.01 0.00 0.00 0.00 0.00 0.00 0.00 0.00 0.00 0.03 0.06 0.03 0.02 0.02 0.01 0.02 0.01 0.00 0.00 0.00
0.61 0.66 0.99 1.21 1.52 1.62 1.23 0.94 0.56 0.28 0.15 0.02 0.06 0.11 0.07 0.18 0.34 0.25 0.13 0.12 0.10 0.03 0.05 0.04 0.00 0.00 0.00 0.00 0.00 0.00 0.00 0.00 0.00 0.00 0.02 0.07 0.09 0.05 0.01 0.00 0.00 0.00 0.00 0.00
1.02 1.10 1.03 0.91 0.79 0.41 0.15 0.04 0.04 0.04 0.03 0.07 0.12 0.23 0.14 0.13 0.19 0.10 0.03 0.05 0.03 0.04 0.01 0.00 0.00 0.00 0.00 0.00 0.00 0.00 0.00 0.00 0.00 0.00 0.01 0.01 0.02 0.01 0.00 0.00 0.00 0.00 0.00 0.00
0.94 0.64 0.37 0.24 0.13 0.01 0.01 0.00 0.01 0.02 0.05 0.20 0.19 0.30 0.25 0.11 0.11 0.07 0.03 0.03 0.01 0.00 0.00 0.00 0.00 0.00 0.00 0.00 0.00 0.00 0.00 0.00 0.00 0.00 0.00 0.00 0.00 0.00 0.00 0.00 0.00 0.00 0.00 0.00
0.49 0.47 0.17 0.02 0.02 0.01 0.01 0.01 0.04 0.09 0.22 0.44 0.47 0.19 0.42 0.28 0.04 0.03 0.01 0.00 0.00 0.00 0.00 0.00 0.00 0.00 0.00 0.00 0.00 0.00 0.00 0.00 0.00 0.00 0.00 0.00 0.00 0.00 0.00 0.00 0.00 0.00 0.00 0.00
0.31 0.15 0.05 0.01 0.03 0.02 0.06 0.12 0.23 0.25 0.30 0.39 0.54 0.26 0.12 0.13 0.05 0.00 0.00 0.00 0.00 0.00 0.00 0.00 0.00 0.00 0.00 0.00 0.00 0.00 0.00 0.00 0.00 0.00 0.00 0.00 0.00 0.00 0.00 0.00 0.00 0.00 0.00 0.00